Showing default

COLIBRI-S, 61746

Orbit data source: Space-Track

COLIBRI-S, 61746 is a payload satellite owned by SNIU (CIS) in SSO that was launched on Mon, 04 Nov 2024 UTC via a SOYUZ-2-1B launch vehicle from the Vostochny Cosmodrome (VOSTO). Payload-class satellites include a variety of spacecraft equipped with specific instruments for various scientific and technological missions. These include communications satellites like Starlink; space stations such as the ISS; scientific satellites like the Hubble; Earth observation satellites from companies like Planet Labs, Umbra, and HawkEye 360; GPS; miniature CubeSats for education and research; and military/defense satellites.

Loading next visibility...
Identifier
61746, 2024-199M
Orbit
SSO
Country
Flag of CISCIS
Related business
Manufacturer
Geoskan
Mission
Operational Amateur Imaging
Bus & Motor
CUBESAT 3U, Unknown motor
Mass
3 kg wet, 3 kg dry
Launch date (UTC)
2024-11-04 (1 year ago)
Launch vehicle
SOYUZ-2-1B
Launch site
Vostochny Cosmodrome (VOSTO)
Object type
Payload
Rocket body
Debris
Shape & HBR
Box, 0.1 m
Radar Cross Section
0.035 m², Small (<0.1 m²)

Expand to show TLE details & history
Last TLE update: 9 hours ago

TLE from 9 hours ago
0 COLIBRI-S
1 61746U 24199M   25295.15753059  .00022154  00000-0  61821-3 0  9992
2 61746  97.3323 163.1611 0012888  66.0122 294.2470 15.36668658100728
Epoch: 2025-10-22T03:46Z
TLE epoch observation values (Epoch: 2025-10-22T03:46:50.642Z)
Latitude
-0.00007°
Longitude
75.61494°
Altitude
455.475 km
Speed
7.641 km/s
True Right ascension
10h 52m 38s
True Declination
0° 00' 00"
Sunlit
Object was in daylight at epoch
Visualization orbit readout
Latitude
Unknown
Longitude
Unknown
Altitude
Unknown
Speed
Unknown
Apparent Right ascension
Unknown
Apparent Declination
Unknown
Sunlit
N/A
Visualization observer readout
Local Sidereal Time
07:24:58
Azimuth
Unknown
Elevation
Unknown
Doppler factor
Unknown
Orbital elements
Apogee altitude
461.713 km
Perigee altitude
444.105 km
Semi-major axis
6,831.046 km
Eccentricity
0.00129
Inclination
97.3323°
RAAN
163.1611°
Arg. of periapsis
66.0122°
True anomaly
294.11225°
Mean anomaly
294.247°
Eccentric anomaly
294.17964°
Mean motion
3.84426 °/min
Orbital period
93.65 mins
BSTAR
0.00061821
Loading maneuver chart data...
Computing Atmospheric mass density...
Loading historical data...
Loading historical data...
Loading historical data...
Loading historical data...
Loading historical data...
Loading historical data...
Loading historical data...

Documentation

Showing up to 5 results
|